Total_Precipitation_Accumulation
0.00 0.00 0.00 0.00 0.00 0.00 0.00 0.00 0.00 0.00 0.00 0.00 0.00 0.01 0.02 0.04 0.06 0.06 0.07 0.11 0.17 0.26 0.44 0.66 0.98 1.30 1.63 2.00 2.47 2.67 2.61 2.17 1.72 1.52 1.33 1.24 1.13 1.09 1.12 1.13 1.08 1.03 0.94 0.90
0.00 0.00 0.00 0.00 0.00 0.00 0.00 0.00 0.00 0.00 0.00 0.00 0.00 0.01 0.01 0.03 0.03 0.04 0.06 0.12 0.22 0.38 0.64 1.02 1.46 1.68 1.65 1.90 2.39 2.43 1.98 1.53 1.25 1.11 0.99 0.88 0.86 0.85 0.82 0.79 0.77 0.75 0.76 0.78
0.00 0.00 0.00 0.00 0.00 0.00 0.00 0.00 0.00 0.00 0.00 0.00 0.00 0.01 0.02 0.02 0.04 0.06 0.09 0.16 0.27 0.50 0.82 1.15 1.50 1.58 1.48 1.69 1.74 1.45 1.16 0.90 0.71 0.61 0.57 0.59 0.57 0.56 0.50 0.45 0.44 0.50 0.55 0.56
0.00 0.01 0.00 0.00 0.00 0.00 0.00 0.00 0.00 0.00 0.00 0.00 0.01 0.03 0.04 0.04 0.07 0.10 0.15 0.24 0.30 0.37 0.52 0.75 0.94 1.07 1.14 1.15 1.00 0.82 0.70 0.59 0.53 0.52 0.46 0.52 0.47 0.42 0.38 0.33 0.33 0.37 0.41 0.41
0.01 0.01 0.00 0.00 0.00 0.00 0.00 0.00 0.00 0.00 0.00 0.00 0.01 0.03 0.06 0.07 0.14 0.23 0.30 0.32 0.29 0.25 0.29 0.41 0.46 0.53 0.60 0.61 0.56 0.46 0.53 0.59 0.54 0.50 0.44 0.40 0.34 0.30 0.28 0.30 0.34 0.39 0.41 0.40
0.03 0.02 0.01 0.00 0.00 0.01 0.01 0.01 0.01 0.01 0.01 0.05 0.07 0.09 0.14 0.17 0.24 0.36 0.36 0.29 0.24 0.21 0.26 0.30 0.28 0.25 0.25 0.26 0.25 0.25 0.32 0.40 0.39 0.39 0.38 0.35 0.32 0.31 0.28 0.28 0.29 0.32 0.35 0.38
0.08 0.05 0.03 0.02 0.01 0.02 0.02 0.02 0.01 0.02 0.07 0.13 0.16 0.14 0.23 0.30 0.39 0.47 0.35 0.22 0.17 0.16 0.18 0.21 0.21 0.18 0.16 0.14 0.13 0.12 0.14 0.22 0.26 0.28 0.31 0.30 0.31 0.30 0.28 0.25 0.24 0.25 0.26 0.31
0.05 0.06 0.03 0.02 0.03 0.03 0.03 0.02 0.02 0.03 0.03 0.05 0.08 0.18 0.30 0.34 0.40 0.33 0.18 0.10 0.08 0.09 0.09 0.11 0.11 0.10 0.09 0.08 0.07 0.06 0.06 0.08 0.09 0.13 0.17 0.19 0.22 0.23 0.24 0.31 0.29 0.25 0.24 0.27
0.01 0.01 0.01 0.02 0.03 0.04 0.03 0.03 0.03 0.03 0.03 0.05 0.10 0.21 0.24 0.26 0.30 0.19 0.10 0.05 0.04 0.05 0.05 0.05 0.05 0.05 0.04 0.04 0.04 0.04 0.04 0.04 0.05 0.05 0.08 0.10 0.14 0.17 0.24 0.30 0.28 0.24 0.24 0.23
0.00 0.00 0.00 0.01 0.02 0.03 0.03 0.03 0.02 0.03 0.04 0.04 0.08 0.25 0.36 0.35 0.31 0.17 0.08 0.04 0.03 0.03 0.03 0.03 0.03 0.03 0.03 0.02 0.02 0.02 0.03 0.03 0.03 0.03 0.03 0.05 0.11 0.18 0.25 0.30 0.26 0.22 0.21 0.19
0.00 0.00 0.00 0.01 0.02 0.03 0.04 0.04 0.03 0.04 0.05 0.05 0.06 0.18 0.22 0.25 0.20 0.11 0.06 0.04 0.01 0.01 0.01 0.01 0.01 0.01 0.01 0.01 0.01 0.02 0.02 0.02 0.02 0.02 0.03 0.07 0.16 0.20 0.27 0.42 0.40 0.24 0.18 0.16
0.00 0.00 0.00 0.01 0.03 0.04 0.05 0.05 0.04 0.05 0.05 0.04 0.06 0.13 0.10 0.11 0.09 0.06 0.04 0.02 0.01 0.01 0.00 0.00 0.00 0.01 0.01 0.01 0.01 0.01 0.01 0.02 0.02 0.02 0.02 0.05 0.14 0.19 0.23 0.30 0.33 0.25 0.20 0.16
0.00 0.00 0.01 0.02 0.04 0.06 0.05 0.04 0.04 0.05 0.04 0.03 0.11 0.18 0.08 0.05 0.04 0.03 0.02 0.01 0.00 0.00 0.00 0.00 0.00 0.00 0.01 0.01 0.01 0.01 0.01 0.01 0.01 0.02 0.02 0.04 0.06 0.07 0.08 0.10 0.14 0.19 0.21 0.22
0.00 0.01 0.00 0.01 0.01 0.02 0.04 0.05 0.08 0.06 0.06 0.07 0.11 0.17 0.07 0.03 0.01 0.01 0.00 0.00 0.00 0.00 0.00 0.00 0.00 0.00 0.00 0.00 0.00 0.01 0.01 0.01 0.01 0.02 0.03 0.03 0.03 0.03 0.03 0.06 0.10 0.16 0.18 0.19
0.00 0.00 0.00 0.00 0.01 0.02 0.03 0.05 0.06 0.05 0.06 0.10 0.08 0.08 0.04 0.01 0.01 0.01 0.00 0.00 0.00 0.00 0.01 0.01 0.01 0.01 0.01 0.01 0.01 0.01 0.01 0.02 0.02 0.04 0.08 0.08 0.06 0.05 0.05 0.07 0.08 0.10 0.11 0.11
0.00 0.00 0.00 0.00 0.01 0.01 0.03 0.06 0.05 0.02 0.02 0.02 0.02 0.03 0.01 0.02 0.02 0.02 0.02 0.02 0.02 0.02 0.02 0.02 0.02 0.02 0.01 0.01 0.02 0.01 0.01 0.01 0.04 0.07 0.13 0.16 0.13 0.07 0.04 0.05 0.05 0.07 0.07 0.08
0.00 0.00 0.00 0.01 0.01 0.02 0.08 0.06 0.03 0.01 0.02 0.03 0.04 0.05 0.04 0.05 0.05 0.07 0.07 0.06 0.05 0.04 0.03 0.02 0.01 0.01 0.01 0.01 0.01 0.02 0.02 0.02 0.09 0.12 0.11 0.17 0.18 0.08 0.04 0.05 0.06 0.08 0.08 0.11
0.00 0.00 0.00 0.01 0.01 0.06 0.07 0.02 0.01 0.01 0.02 0.03 0.05 0.06 0.08 0.09 0.09 0.09 0.10 0.08 0.04 0.02 0.01 0.00 0.00 0.00 0.00 0.00 0.00 0.02 0.04 0.05 0.12 0.15 0.11 0.17 0.19 0.10 0.10 0.11 0.12 0.13 0.14 0.17
0.00 0.00 0.00 0.00 0.01 0.05 0.03 0.02 0.03 0.04 0.05 0.06 0.08 0.11 0.11 0.09 0.06 0.04 0.03 0.02 0.01 0.00 0.00 0.00 0.00 0.00 0.00 0.01 0.01 0.02 0.07 0.10 0.11 0.13 0.13 0.19 0.25 0.21 0.21 0.21 0.23 0.24 0.27 0.29
0.00 0.00 0.00 0.01 0.01 0.04 0.04 0.04 0.06 0.07 0.14 0.12 0.09 0.07 0.04 0.02 0.03 0.01 0.00 0.00 0.00 0.00 0.00 0.00 0.00 0.00 0.01 0.01 0.03 0.05 0.07 0.11 0.14 0.14 0.16 0.22 0.34 0.38 0.35 0.33 0.34 0.34 0.40 0.43
0.00 0.01 0.01 0.02 0.04 0.06 0.02 0.04 0.05 0.12 0.15 0.05 0.02 0.02 0.02 0.02 0.03 0.01 0.00 0.01 0.01 0.00 0.00 0.01 0.01 0.01 0.02 0.03 0.06 0.10 0.12 0.14 0.16 0.19 0.22 0.28 0.40 0.52 0.50 0.48 0.46 0.46 0.48 0.54
0.00 0.01 0.01 0.03 0.07 0.11 0.02 0.02 0.05 0.06 0.04 0.02 0.02 0.02 0.02 0.02 0.01 0.01 0.01 0.01 0.01 0.01 0.01 0.02 0.03 0.04 0.06 0.08 0.15 0.20 0.21 0.21 0.24 0.27 0.30 0.35 0.46 0.50 0.53 0.58 0.62 0.67 0.68 0.69
0.00 0.01 0.02 0.04 0.07 0.03 0.00 0.01 0.02 0.02 0.02 0.02 0.02 0.02 0.02 0.02 0.02 0.02 0.03 0.02 0.02 0.01 0.02 0.03 0.05 0.08 0.11 0.15 0.25 0.33 0.34 0.36 0.37 0.36 0.36 0.41 0.48 0.58 0.71 0.73 0.70 0.74 0.79 0.84
0.00 0.00 0.01 0.03 0.02 0.01 0.01 0.01 0.02 0.01 0.02 0.02 0.01 0.01 0.01 0.03 0.04 0.05 0.05 0.04 0.03 0.03 0.03 0.04 0.07 0.12 0.17 0.24 0.36 0.44 0.47 0.49 0.48 0.43 0.40 0.44 0.52 0.60 0.72 0.84 0.86 0.89 0.91 0.94
0.00 0.00 0.01 0.02 0.01 0.00 0.01 0.01 0.01 0.01 0.01 0.01 0.00 0.01 0.02 0.04 0.05 0.06 0.06 0.06 0.05 0.04 0.04 0.06 0.10 0.16 0.20 0.29 0.43 0.51 0.55 0.58 0.56 0.50 0.44 0.45 0.51 0.58 0.65 0.75 0.84 0.90 0.93 0.91
0.00 0.00 0.00 0.01 0.00 0.00 0.01 0.00 0.00 0.00 0.01 0.01 0.01 0.01 0.02 0.03 0.04 0.04 0.05 0.04 0.04 0.04 0.07 0.11 0.15 0.21 0.24 0.30 0.41 0.50 0.64 0.76 0.77 0.67 0.56 0.51 0.49 0.54 0.60 0.68 0.68 0.64 0.68 0.67